Time,TemperatureF,DewpointF,PressureIn,WindDirection,WindDirectionDegrees,WindSpeedMPH,WindSpeedGustMPH,Humidity,HourlyPrecipIn,Conditions,Clouds,dailyrainin,SoftwareType,DateUTC
2013-03-09 00:00:00,39.8,37.1,29.71,ENE,67,17.3,17.3,90,0.00,CLR,,0.00,WeatherDisplay:10.37,2013-03-09 00:00:00,
2013-03-09 00:05:00,39.8,37.4,29.72,ESE,108,13.8,13.8,91,0.00,CLR,,0.00,WeatherDisplay:10.37,2013-03-09 00:05:00,
2013-03-09 00:10:00,39.8,37.1,29.72,ENE,65,19.6,19.6,90,0.00,CLR,,0.00,WeatherDisplay:10.37,2013-03-09 00:10:00,
2013-03-09 00:15:00,39.8,37.1,29.72,ESE,106,11.5,11.5,90,0.00,CLR,,0.00,WeatherDisplay:10.37,2013-03-09 00:15:00,
2013-03-09 00:20:00,39.8,37.1,29.72,NE,37,16.1,16.1,90,0.00,CLR,,0.00,WeatherDisplay:10.37,2013-03-09 00:20:00,
2013-03-09 00:25:00,39.8,37.1,29.72,East,89,16.1,16.1,90,0.00,CLR,,0.00,WeatherDisplay:10.37,2013-03-09 00:25:00,
2013-03-09 00:30:00,39.7,37.3,29.72,ESE,116,17.3,17.3,91,0.00,CLR,,0.00,WeatherDisplay:10.37,2013-03-09 00:30:00,
2013-03-09 00:35:00,39.7,37.0,29.72,East,85,16.1,16.1,90,0.00,CLR,,0.00,WeatherDisplay:10.37,2013-03-09 00:35:00,
2013-03-09 00:40:00,39.7,37.3,29.72,NNE,27,16.1,16.1,91,0.00,CLR,,0.00,WeatherDisplay:10.37,2013-03-09 00:40:00,
2013-03-09 00:45:00,39.6,36.9,29.73,ENE,61,15.0,15.0,90,0.00,CLR,,0.00,WeatherDisplay:10.37,2013-03-09 00:45:00,
2013-03-09 00:50:00,39.6,36.9,29.73,East,79,11.5,11.5,90,0.00,CLR,,0.00,WeatherDisplay:10.37,2013-03-09 00:50:00,
2013-03-09 00:55:00,39.7,37.0,29.73,ENE,63,16.1,16.1,90,0.00,CLR,,0.00,WeatherDisplay:10.37,2013-03-09 00:55:00,
2013-03-09 01:00:00,39.7,37.0,29.73,East,92,16.0,16.0,90,0.00,CLR,,0.00,WeatherDisplay:10.37,2013-03-09 01:00:00,
2013-03-09 01:05:00,39.7,37.0,29.73,East,79,11.5,11.5,90,0.00,CLR,,0.00,WeatherDisplay:10.37,2013-03-09 01:05:00,
2013-03-09 01:10:00,39.7,37.0,29.73,ESE,115,12.7,12.7,90,0.00,CLR,,0.00,WeatherDisplay:10.37,2013-03-09 01:10:00,
2013-03-09 01:15:00,39.8,37.1,29.73,ESE,119,21.9,21.9,90,0.00,CLR,,0.00,WeatherDisplay:10.37,2013-03-09 01:15:00,
2013-03-09 01:20:00,39.8,37.1,29.73,ESE,103,18.4,18.4,90,0.00,CLR,,0.00,WeatherDisplay:10.37,2013-03-09 01:20:00,
2013-03-09 01:25:00,39.8,36.8,29.74,ENE,64,13.8,13.8,89,0.00,CLR,,0.00,WeatherDisplay:10.37,2013-03-09 01:25:00,
2013-03-09 01:30:00,39.8,36.8,29.73,ENE,78,13.0,13.0,89,0.00,CLR,,0.00,WeatherDisplay:10.37,2013-03-09 01:30:00,
2013-03-09 01:35:00,39.8,36.8,29.73,East,93,14.0,14.0,89,0.00,CLR,,0.00,WeatherDisplay:10.37,2013-03-09 01:35:00,
2013-03-09 01:40:00,39.7,36.7,29.73,ENE,57,15.0,15.0,89,0.00,CLR,,0.00,WeatherDisplay:10.37,2013-03-09 01:40:00,
2013-03-09 01:45:00,39.7,36.7,29.73,East,88,13.8,13.8,89,0.00,CLR,,0.00,WeatherDisplay:10.37,2013-03-09 01:45:00,
2013-03-09 01:50:00,39.8,36.8,29.73,ESE,114,15.0,15.0,89,0.00,CLR,,0.00,WeatherDisplay:10.37,2013-03-09 01:50:00,
2013-03-09 01:55:00,39.8,36.8,29.73,SE,134,11.5,11.5,89,0.00,CLR,,0.00,WeatherDisplay:10.37,2013-03-09 01:55:00,
2013-03-09 02:00:00,39.8,36.8,29.73,ENE,70,16.1,16.1,89,0.00,CLR,,0.00,WeatherDisplay:10.37,2013-03-09 02:00:00,
2013-03-09 02:05:00,39.8,36.8,29.73,East,89,11.5,11.5,89,0.00,CLR,,0.00,WeatherDisplay:10.37,2013-03-09 02:05:00,
2013-03-09 02:10:00,39.9,36.9,29.73,ENE,77,11.5,11.5,89,0.00,CLR,,0.00,WeatherDisplay:10.37,2013-03-09 02:10:00,
2013-03-09 02:15:00,39.9,36.9,29.73,NE,51,20.7,20.7,89,0.00,CLR,,0.00,WeatherDisplay:10.37,2013-03-09 02:15:00,
2013-03-09 02:20:00,39.9,36.6,29.73,East,81,19.6,19.6,88,0.00,CLR,,0.00,WeatherDisplay:10.37,2013-03-09 02:20:00,
2013-03-09 02:25:00,39.8,36.8,29.73,East,81,19.0,19.0,89,0.00,CLR,,0.00,WeatherDisplay:10.37,2013-03-09 02:25:00,
2013-03-09 02:30:00,39.8,36.8,29.73,East,91,17.3,17.3,89,0.00,CLR,,0.00,WeatherDisplay:10.37,2013-03-09 02:30:00,
2013-03-09 02:35:00,39.7,36.7,29.73,ENE,71,19.6,19.6,89,0.00,CLR,,0.00,WeatherDisplay:10.37,2013-03-09 02:35:00,
2013-03-09 02:40:00,39.7,36.7,29.72,ESE,104,21.0,21.0,89,0.00,CLR,,0.00,WeatherDisplay:10.37,2013-03-09 02:40:00,
2013-03-09 02:45:00,39.7,36.7,29.72,ENE,71,19.6,19.6,89,0.00,CLR,,0.00,WeatherDisplay:10.37,2013-03-09 02:45:00,
2013-03-09 02:50:00,39.6,36.6,29.72,ENE,71,19.6,19.6,89,0.00,CLR,,0.00,WeatherDisplay:10.37,2013-03-09 02:50:00,
2013-03-09 02:55:00,39.6,36.6,29.72,ENE,64,23.0,23.0,89,0.00,CLR,,0.00,WeatherDisplay:10.37,2013-03-09 02:55:00,
2013-03-09 03:00:00,39.5,36.5,29.72,East,87,19.6,19.6,89,0.00,CLR,,0.00,WeatherDisplay:10.37,2013-03-09 03:00:00,
2013-03-09 03:05:00,39.5,36.5,29.71,ENE,68,20.7,20.7,89,0.00,CLR,,0.00,WeatherDisplay:10.37,2013-03-09 03:05:00,
2013-03-09 03:10:00,39.5,36.5,29.72,ENE,74,22.0,22.0,89,0.00,CLR,,0.00,WeatherDisplay:10.37,2013-03-09 03:10:00,
2013-03-09 03:15:00,39.5,36.5,29.71,ENE,78,18.4,18.4,89,0.00,CLR,,0.00,WeatherDisplay:10.37,2013-03-09 03:15:00,
2013-03-09 03:20:00,39.5,36.5,29.71,NNE,32,16.1,16.1,89,0.00,CLR,,0.00,WeatherDisplay:10.37,2013-03-09 03:20:00,
2013-03-09 03:25:00,39.6,36.6,29.71,ENE,68,21.9,21.9,89,0.00,CLR,,0.00,WeatherDisplay:10.37,2013-03-09 03:25:00,
2013-03-09 03:30:00,39.6,36.6,29.71,ENE,72,16.1,16.1,89,0.00,CLR,,0.00,WeatherDisplay:10.37,2013-03-09 03:30:00,
2013-03-09 03:35:00,39.6,36.6,29.71,ENE,61,15.0,15.0,89,0.00,CLR,,0.00,WeatherDisplay:10.37,2013-03-09 03:35:00,
2013-03-09 03:40:00,39.5,36.5,29.71,East,79,18.4,18.4,89,0.00,CLR,,0.00,WeatherDisplay:10.37,2013-03-09 03:40:00,
2013-03-09 03:45:00,39.6,36.6,29.71,ENE,68,23.0,23.0,89,0.00,CLR,,0.00,WeatherDisplay:10.37,2013-03-09 03:45:00,
2013-03-09 03:50:00,39.6,36.6,29.71,ENE,63,24.2,24.2,89,0.00,CLR,,0.00,WeatherDisplay:10.37,2013-03-09 03:50:00,
2013-03-09 03:55:00,39.5,36.5,29.71,NE,34,17.3,17.3,89,0.00,CLR,,0.00,WeatherDisplay:10.37,2013-03-09 03:55:00,
2013-03-09 04:00:00,39.5,36.5,29.71,East,91,18.0,18.0,89,0.00,CLR,,0.00,WeatherDisplay:10.37,2013-03-09 04:00:00,
2013-03-09 04:05:00,39.4,36.4,29.70,ENE,68,16.1,16.1,89,0.00,CLR,,0.00,WeatherDisplay:10.37,2013-03-09 04:05:00,
2013-03-09 04:10:00,39.3,36.3,29.71,ESE,115,12.7,12.7,89,0.00,CLR,,0.00,WeatherDisplay:10.37,2013-03-09 04:10:00,
2013-03-09 04:15:00,39.4,36.4,29.70,East,81,19.6,19.6,89,0.00,CLR,,0.00,WeatherDisplay:10.37,2013-03-09 04:15:00,
2013-03-09 04:20:00,39.4,36.4,29.71,ENE,71,19.6,19.6,89,0.00,CLR,,0.00,WeatherDisplay:10.37,2013-03-09 04:20:00,
2013-03-09 04:25:00,39.4,36.7,29.71,ENE,59,18.4,18.4,90,0.00,CLR,,0.00,WeatherDisplay:10.37,2013-03-09 04:25:00,
2013-03-09 04:30:00,39.5,36.5,29.71,NE,54,20.7,20.7,89,0.00,CLR,,0.00,WeatherDisplay:10.37,2013-03-09 04:30:00,
2013-03-09 04:35:00,39.5,36.5,29.71,ENE,59,24.2,24.2,89,0.00,CLR,,0.00,WeatherDisplay:10.37,2013-03-09 04:35:00,
2013-03-09 04:40:00,39.5,36.5,29.71,ENE,64,21.0,21.0,89,0.00,CLR,,0.00,WeatherDisplay:10.37,2013-03-09 04:40:00,
2013-03-09 04:46:00,39.5,36.5,29.71,NE,54,17.3,17.3,89,0.00,CLR,,0.00,WeatherDisplay:10.37,2013-03-09 04:46:00,
2013-03-09 04:51:00,39.5,36.5,29.71,NE,56,26.5,26.5,89,0.00,CLR,,0.00,WeatherDisplay:10.37,2013-03-09 04:51:00,
2013-03-09 04:56:00,39.5,36.5,29.71,NE,50,23.0,23.0,89,0.00,CLR,,0.00,WeatherDisplay:10.37,2013-03-09 04:56:00,
2013-03-09 05:00:00,39.5,36.5,29.71,ESE,104,27.6,27.6,89,0.00,CLR,,0.00,WeatherDisplay:10.37,2013-03-09 05:00:00,
2013-03-09 05:05:00,39.5,36.2,29.72,ENE,61,19.6,19.6,88,0.00,CLR,,0.00,WeatherDisplay:10.37,2013-03-09 05:05:00,
2013-03-09 05:10:00,39.5,36.2,29.72,ENE,68,19.6,19.6,88,0.00,CLR,,0.00,WeatherDisplay:10.37,2013-03-09 05:10:00,
2013-03-09 05:15:00,39.5,36.2,29.72,ENE,67,18.4,18.4,88,0.00,CLR,,0.00,WeatherDisplay:10.37,2013-03-09 05:15:00,
2013-03-09 05:20:00,39.4,36.1,29.72,ENE,67,19.6,19.6,88,0.00,CLR,,0.00,WeatherDisplay:10.37,2013-03-09 05:20:00,
2013-03-09 05:25:00,39.5,36.2,29.73,North,10,17.3,17.3,88,0.00,CLR,,0.00,WeatherDisplay:10.37,2013-03-09 05:25:00,
2013-03-09 05:30:00,39.4,36.1,29.73,ENE,75,19.6,19.6,88,0.00,CLR,,0.00,WeatherDisplay:10.37,2013-03-09 05:30:00,
2013-03-09 05:35:00,39.4,36.1,29.73,NE,52,16.1,16.1,88,0.00,CLR,,0.00,WeatherDisplay:10.37,2013-03-09 05:35:00,
2013-03-09 05:40:00,39.4,36.1,29.73,NE,51,19.6,19.6,88,0.00,CLR,,0.00,WeatherDisplay:10.37,2013-03-09 05:40:00,
2013-03-09 05:45:00,39.4,36.1,29.73,SE,136,19.6,19.6,88,0.00,CLR,,0.00,WeatherDisplay:10.37,2013-03-09 05:45:00,
2013-03-09 05:50:00,39.4,36.1,29.73,NE,37,12.7,12.7,88,0.00,CLR,,0.00,WeatherDisplay:10.37,2013-03-09 05:50:00,
2013-03-09 05:55:00,39.3,36.0,29.73,ENE,75,17.3,17.3,88,0.00,CLR,,0.00,WeatherDisplay:10.37,2013-03-09 05:55:00,
2013-03-09 06:00:00,39.2,35.9,29.73,ESE,108,13.8,13.8,88,0.00,CLR,,0.00,WeatherDisplay:10.37,2013-03-09 06:00:00,
2013-03-09 06:05:00,39.2,35.9,29.74,East,96,11.0,11.0,88,0.00,CLR,,0.00,WeatherDisplay:10.37,2013-03-09 06:05:00,
2013-03-09 06:10:00,39.2,36.2,29.73,NE,51,12.0,12.0,89,0.00,CLR,,0.00,WeatherDisplay:10.37,2013-03-09 06:10:00,
2013-03-09 06:15:00,39.1,36.1,29.73,East,91,17.3,17.3,89,0.00,CLR,,0.00,WeatherDisplay:10.37,2013-03-09 06:15:00,
2013-03-09 06:20:00,39.0,35.7,29.73,SE,129,13.8,13.8,88,0.00,CLR,,0.00,WeatherDisplay:10.37,2013-03-09 06:20:00,
2013-03-09 06:25:00,38.9,35.9,29.73,ESE,104,18.4,18.4,89,0.00,CLR,,0.00,WeatherDisplay:10.37,2013-03-09 06:25:00,
2013-03-09 06:30:00,38.8,35.8,29.73,East,93,13.8,13.8,89,0.00,CLR,,0.00,WeatherDisplay:10.37,2013-03-09 06:30:00,
2013-03-09 06:35:00,38.7,36.0,29.73,East,84,10.4,10.4,90,0.00,CLR,,0.00,WeatherDisplay:10.37,2013-03-09 06:35:00,
2013-03-09 06:41:00,38.6,35.9,29.73,NE,54,13.8,13.8,90,0.00,CLR,,0.00,WeatherDisplay:10.37,2013-03-09 06:41:00,
2013-03-09 06:46:00,38.6,35.9,29.74,ENE,60,16.1,16.1,90,0.00,CLR,,0.00,WeatherDisplay:10.37,2013-03-09 06:46:00,
2013-03-09 06:51:00,38.6,35.9,29.74,NE,54,13.8,13.8,90,0.00,CLR,,0.00,WeatherDisplay:10.37,2013-03-09 06:51:00,
2013-03-09 06:56:00,38.6,35.9,29.74,ESE,120,17.3,17.3,90,0.00,CLR,,0.00,WeatherDisplay:10.37,2013-03-09 06:56:00,
2013-03-09 07:01:00,38.5,36.1,29.74,ENE,75,16.1,16.1,91,0.00,CLR,,0.00,WeatherDisplay:10.37,2013-03-09 07:01:00,
2013-03-09 07:06:00,38.5,36.1,29.74,ENE,70,15.0,15.0,91,0.00,CLR,,0.00,WeatherDisplay:10.37,2013-03-09 07:06:00,
2013-03-09 07:11:00,38.5,36.1,29.74,ENE,60,17.0,17.0,91,0.00,CLR,,0.00,WeatherDisplay:10.37,2013-03-09 07:11:00,
2013-03-09 07:16:00,38.5,36.1,29.74,ESE,105,19.6,19.6,91,0.00,CLR,,0.00,WeatherDisplay:10.37,2013-03-09 07:16:00,
2013-03-09 07:21:00,38.5,36.1,29.75,ESE,102,17.3,17.3,91,0.00,CLR,,0.00,WeatherDisplay:10.37,2013-03-09 07:21:00,
2013-03-09 07:27:00,38.5,36.1,29.75,ESE,113,13.8,13.8,91,0.00,CLR,,0.00,WeatherDisplay:10.37,2013-03-09 07:27:00,
2013-03-09 07:32:00,38.5,36.1,29.75,ENE,57,17.3,17.3,91,0.00,CLR,,0.00,WeatherDisplay:10.37,2013-03-09 07:32:00,
2013-03-09 07:37:00,38.5,36.1,29.75,SE,128,18.4,18.4,91,0.00,CLR,,0.00,WeatherDisplay:10.37,2013-03-09 07:37:00,
2013-03-09 07:42:00,38.5,36.1,29.75,NNE,29,15.0,15.0,91,0.00,CLR,,0.00,WeatherDisplay:10.37,2013-03-09 07:42:00,
2013-03-09 07:47:00,38.5,36.1,29.75,ENE,70,12.7,12.7,91,0.00,CLR,,0.00,WeatherDisplay:10.37,2013-03-09 07:47:00,
2013-03-09 07:52:00,38.6,36.2,29.75,ENE,58,15.0,15.0,91,0.00,CLR,,0.00,WeatherDisplay:10.37,2013-03-09 07:52:00,
2013-03-09 07:57:00,38.7,36.3,29.76,NE,34,13.8,13.8,91,0.00,CLR,,0.00,WeatherDisplay:10.37,2013-03-09 07:57:00,
2013-03-09 08:02:00,38.8,36.4,29.76,ENE,65,12.7,12.7,91,0.00,CLR,,0.00,WeatherDisplay:10.37,2013-03-09 08:02:00,
2013-03-09 08:07:00,38.9,36.2,29.76,NE,53,16.1,16.1,90,0.00,CLR,,0.00,WeatherDisplay:10.37,2013-03-09 08:07:00,
2013-03-09 08:12:00,39.0,36.3,29.76,ENE,64,17.3,17.3,90,0.00,CLR,,0.00,WeatherDisplay:10.37,2013-03-09 08:12:00,
2013-03-09 08:17:00,39.1,36.4,29.76,ENE,65,15.0,15.0,90,0.00,CLR,,0.00,WeatherDisplay:10.37,2013-03-09 08:17:00,
2013-03-09 08:22:00,39.1,36.4,29.76,ESE,114,16.1,16.1,90,0.00,CLR,,0.00,WeatherDisplay:10.37,2013-03-09 08:22:00,
2013-03-09 08:27:00,39.2,36.5,29.76,ENE,60,11.5,11.5,90,0.00,CLR,,0.00,WeatherDisplay:10.37,2013-03-09 08:27:00,
2013-03-09 08:32:00,39.2,36.5,29.76,ENE,67,16.1,16.1,90,0.00,CLR,,0.00,WeatherDisplay:10.37,2013-03-09 08:32:00,
2013-03-09 08:37:00,39.3,36.6,29.76,ENE,60,15.0,15.0,90,0.00,CLR,,0.00,WeatherDisplay:10.37,2013-03-09 08:37:00,
2013-03-09 08:42:00,39.3,36.6,29.76,SE,126,13.8,13.8,90,0.00,CLR,,0.00,WeatherDisplay:10.37,2013-03-09 08:42:00,
2013-03-09 08:47:00,39.3,36.6,29.76,East,96,12.7,12.7,90,0.00,CLR,,0.00,WeatherDisplay:10.37,2013-03-09 08:47:00,
2013-03-09 08:52:00,39.4,36.7,29.77,NE,54,12.7,12.7,90,0.00,CLR,,0.00,WeatherDisplay:10.37,2013-03-09 08:52:00,
2013-03-09 08:57:00,39.4,36.7,29.77,ENE,68,13.8,13.8,90,0.00,CLR,,0.00,WeatherDisplay:10.37,2013-03-09 08:57:00,
2013-03-09 09:02:00,39.4,36.7,29.77,NE,40,12.7,12.7,90,0.00,CLR,,0.00,WeatherDisplay:10.37,2013-03-09 09:02:00,
2013-03-09 09:07:00,39.4,36.7,29.77,ENE,77,16.1,16.1,90,0.00,CLR,,0.00,WeatherDisplay:10.37,2013-03-09 09:07:00,
2013-03-09 09:12:00,39.5,36.8,29.77,ESE,108,15.0,15.0,90,0.00,CLR,,0.00,WeatherDisplay:10.37,2013-03-09 09:12:00,
2013-03-09 09:17:00,39.5,36.8,29.77,NE,47,14.0,14.0,90,0.00,CLR,,0.00,WeatherDisplay:10.37,2013-03-09 09:17:00,
2013-03-09 09:22:00,39.6,36.9,29.77,ENE,71,18.4,18.4,90,0.00,CLR,,0.00,WeatherDisplay:10.37,2013-03-09 09:22:00,
2013-03-09 09:27:00,39.6,36.6,29.77,NNE,32,19.6,19.6,89,0.00,CLR,,0.00,WeatherDisplay:10.37,2013-03-09 09:27:00,
2013-03-09 09:32:00,39.7,36.7,29.77,NE,43,16.1,16.1,89,0.00,CLR,,0.00,WeatherDisplay:10.37,2013-03-09 09:32:00,
2013-03-09 09:37:00,39.7,36.7,29.77,East,82,13.8,13.8,89,0.00,CLR,,0.00,WeatherDisplay:10.37,2013-03-09 09:37:00,
2013-03-09 09:42:00,39.7,36.7,29.77,ENE,65,18.4,18.4,89,0.00,CLR,,0.00,WeatherDisplay:10.37,2013-03-09 09:42:00,
2013-03-09 09:47:00,39.7,36.7,29.77,ENE,77,19.6,19.6,89,0.00,CLR,,0.00,WeatherDisplay:10.37,2013-03-09 09:47:00,
2013-03-09 09:52:00,39.8,36.8,29.77,ENE,72,19.6,19.6,89,0.00,CLR,,0.00,WeatherDisplay:10.37,2013-03-09 09:52:00,
2013-03-09 09:57:00,39.8,36.8,29.77,NE,48,18.0,18.0,89,0.00,CLR,,0.00,WeatherDisplay:10.37,2013-03-09 09:57:00,
2013-03-09 10:02:00,39.9,36.9,29.77,ENE,63,17.3,17.3,89,0.00,CLR,,0.00,WeatherDisplay:10.37,2013-03-09 10:02:00,
2013-03-09 10:07:00,39.8,36.8,29.77,NNE,20,17.3,17.3,89,0.00,CLR,,0.00,WeatherDisplay:10.37,2013-03-09 10:07:00,
2013-03-09 10:12:00,39.8,36.8,29.77,ENE,64,18.4,18.4,89,0.00,CLR,,0.00,WeatherDisplay:10.37,2013-03-09 10:12:00,
2013-03-09 10:17:00,39.8,36.8,29.77,East,88,17.3,17.3,89,0.00,CLR,,0.00,WeatherDisplay:10.37,2013-03-09 10:17:00,
2013-03-09 10:22:00,39.7,37.0,29.77,NNE,20,12.0,12.0,90,0.00,CLR,,0.00,WeatherDisplay:10.37,2013-03-09 10:22:00,
2013-03-09 10:27:00,39.7,37.0,29.77,East,88,16.1,16.1,90,0.00,CLR,,0.00,WeatherDisplay:10.37,2013-03-09 10:27:00,
2013-03-09 10:32:00,39.7,37.0,29.77,NNW,342,19.6,19.6,90,0.00,CLR,,0.00,WeatherDisplay:10.37,2013-03-09 10:32:00,
2013-03-09 10:37:00,39.7,37.0,29.77,ENE,75,12.0,12.0,90,0.00,CLR,,0.00,WeatherDisplay:10.37,2013-03-09 10:37:00,
2013-03-09 10:42:00,39.8,37.1,29.78,NE,36,15.0,15.0,90,0.00,CLR,,0.00,WeatherDisplay:10.37,2013-03-09 10:42:00,
2013-03-09 10:47:00,39.8,37.1,29.78,East,95,12.7,12.7,90,0.00,CLR,,0.00,WeatherDisplay:10.37,2013-03-09 10:47:00,
2013-03-09 10:52:00,39.8,37.1,29.78,ENE,74,19.6,19.6,90,0.00,CLR,,0.00,WeatherDisplay:10.37,2013-03-09 10:52:00,
2013-03-09 10:57:00,39.9,37.5,29.78,East,83,17.3,17.3,91,0.00,CLR,,0.00,WeatherDisplay:10.37,2013-03-09 10:57:00,
2013-03-09 11:02:00,40.0,37.6,29.78,NE,51,18.4,18.4,91,0.00,CLR,,0.00,WeatherDisplay:10.37,2013-03-09 11:02:00,
2013-03-09 11:07:00,40.1,37.7,29.78,North,10,21.9,21.9,91,0.00,CLR,,0.00,WeatherDisplay:10.37,2013-03-09 11:07:00,
2013-03-09 11:12:00,40.1,37.4,29.78,NE,40,18.4,18.4,90,0.00,CLR,,0.00,WeatherDisplay:10.37,2013-03-09 11:12:00,
2013-03-09 11:17:00,40.1,37.4,29.78,NE,47,15.0,15.0,90,0.00,CLR,,0.00,WeatherDisplay:10.37,2013-03-09 11:17:00,
2013-03-09 11:22:00,40.2,37.5,29.78,ENE,71,16.1,16.1,90,0.00,CLR,,0.00,WeatherDisplay:10.37,2013-03-09 11:22:00,
2013-03-09 11:27:00,40.2,37.5,29.78,East,79,17.3,17.3,90,0.00,CLR,,0.00,WeatherDisplay:10.37,2013-03-09 11:27:00,
2013-03-09 11:32:00,40.2,37.8,29.78,ENE,57,13.8,13.8,91,0.00,CLR,,0.00,WeatherDisplay:10.37,2013-03-09 11:32:00,
2013-03-09 11:37:00,40.1,37.7,29.78,NE,47,12.7,12.7,91,0.00,CLR,,0.00,WeatherDisplay:10.37,2013-03-09 11:37:00,
2013-03-09 11:42:00,40.1,37.7,29.79,ENE,58,13.0,13.0,91,0.00,CLR,,0.00,WeatherDisplay:10.37,2013-03-09 11:42:00,
2013-03-09 11:47:00,39.9,37.2,29.79,NNE,30,19.6,19.6,90,0.00,CLR,,0.00,WeatherDisplay:10.37,2013-03-09 11:47:00,
2013-03-09 11:52:00,39.8,37.4,29.78,ENE,70,21.9,21.9,91,0.00,CLR,,0.00,WeatherDisplay:10.37,2013-03-09 11:52:00,
2013-03-09 11:57:00,39.7,37.3,29.78,ENE,58,17.3,17.3,91,0.00,CLR,,0.00,WeatherDisplay:10.37,2013-03-09 11:57:00,
2013-03-09 12:02:00,39.6,37.2,29.79,ENE,77,16.1,16.1,91,0.00,CLR,,0.00,WeatherDisplay:10.37,2013-03-09 12:02:00,
2013-03-09 12:07:00,39.5,37.1,29.79,ENE,72,16.0,16.0,91,0.00,CLR,,0.00,WeatherDisplay:10.37,2013-03-09 12:07:00,
2013-03-09 12:12:00,39.5,37.4,29.79,NE,44,16.1,16.1,92,0.00,CLR,,0.00,WeatherDisplay:10.37,2013-03-09 12:12:00,
2013-03-09 12:17:00,39.4,37.0,29.79,NE,47,13.8,13.8,91,0.00,CLR,,0.00,WeatherDisplay:10.37,2013-03-09 12:17:00,
2013-03-09 12:22:00,39.4,37.3,29.79,East,98,19.6,19.6,92,0.00,CLR,,0.00,WeatherDisplay:10.37,2013-03-09 12:22:00,
2013-03-09 12:27:00,39.4,37.3,29.79,East,100,12.0,12.0,92,0.00,CLR,,0.00,WeatherDisplay:10.37,2013-03-09 12:27:00,
2013-03-09 12:32:00,39.3,37.2,29.79,NE,55,13.8,13.8,92,0.00,CLR,,0.00,WeatherDisplay:10.37,2013-03-09 12:32:00,
2013-03-09 12:37:00,39.3,37.4,29.79,NE,55,19.6,19.6,93,0.00,CLR,,0.00,WeatherDisplay:10.37,2013-03-09 12:37:00,
2013-03-09 12:42:00,39.2,37.3,29.79,NE,34,16.1,16.1,93,0.00,CLR,,0.00,WeatherDisplay:10.37,2013-03-09 12:42:00,
2013-03-09 12:47:00,39.1,37.5,29.79,East,99,17.3,17.3,94,0.00,CLR,,0.00,WeatherDisplay:10.37,2013-03-09 12:47:00,
2013-03-09 12:52:00,39.1,37.8,29.79,NE,36,13.8,13.8,95,0.00,CLR,,0.00,WeatherDisplay:10.37,2013-03-09 12:52:00,
2013-03-09 12:57:00,39.1,37.8,29.79,East,96,17.3,17.3,95,0.00,CLR,,0.00,WeatherDisplay:10.37,2013-03-09 12:57:00,
2013-03-09 13:02:00,39.2,37.9,29.79,ENE,57,11.5,11.5,95,0.00,CLR,,0.00,WeatherDisplay:10.37,2013-03-09 13:02:00,
2013-03-09 13:07:00,39.2,37.9,29.80,ENE,78,12.0,12.0,95,0.00,CLR,,0.00,WeatherDisplay:10.37,2013-03-09 13:07:00,
2013-03-09 13:13:00,39.3,38.0,29.80,East,92,7.0,7.0,95,0.00,CLR,,0.00,WeatherDisplay:10.37,2013-03-09 13:13:00,
2013-03-09 13:18:00,39.3,38.0,29.81,NE,54,11.0,11.0,95,0.00,CLR,,0.00,WeatherDisplay:10.37,2013-03-09 13:18:00,
2013-03-09 13:23:00,39.3,38.0,29.80,NE,47,14.0,14.0,95,0.00,CLR,,0.00,WeatherDisplay:10.37,2013-03-09 13:23:00,
2013-03-09 13:28:00,39.3,38.0,29.80,East,81,15.0,15.0,95,0.00,CLR,,0.00,WeatherDisplay:10.37,2013-03-09 13:28:00,
2013-03-09 13:33:00,39.3,38.0,29.80,ENE,61,16.1,16.1,95,0.00,CLR,,0.00,WeatherDisplay:10.37,2013-03-09 13:33:00,
2013-03-09 13:38:00,39.2,37.9,29.80,ENE,74,16.1,16.1,95,0.00,CLR,,0.00,WeatherDisplay:10.37,2013-03-09 13:38:00,
2013-03-09 13:43:00,39.3,38.0,29.80,East,95,10.4,10.4,95,0.00,CLR,,0.00,WeatherDisplay:10.37,2013-03-09 13:43:00,
2013-03-09 13:48:00,39.1,37.8,29.81,ENE,60,11.5,11.5,95,0.00,CLR,,0.00,WeatherDisplay:10.37,2013-03-09 13:48:00,
2013-03-09 13:53:00,39.1,37.8,29.81,South,174,15.0,15.0,95,0.00,CLR,,0.00,WeatherDisplay:10.37,2013-03-09 13:53:00,
2013-03-09 13:58:00,38.9,37.6,29.81,ENE,63,17.3,17.3,95,0.00,CLR,,0.00,WeatherDisplay:10.37,2013-03-09 13:58:00,
2013-03-09 14:03:00,38.9,37.6,29.81,NNE,25,11.5,11.5,95,0.00,CLR,,0.00,WeatherDisplay:10.37,2013-03-09 14:03:00,
2013-03-09 14:08:00,38.9,37.6,29.81,NE,44,18.4,18.4,95,0.00,CLR,,0.00,WeatherDisplay:10.37,2013-03-09 14:08:00,
2013-03-09 14:13:00,38.8,37.5,29.81,ESE,110,15.0,15.0,95,0.00,CLR,,0.00,WeatherDisplay:10.37,2013-03-09 14:13:00,
2013-03-09 14:18:00,38.8,37.5,29.81,ENE,68,18.0,18.0,95,0.00,CLR,,0.00,WeatherDisplay:10.37,2013-03-09 14:18:00,
2013-03-09 14:23:00,38.8,37.5,29.81,ENE,68,14.0,14.0,95,0.00,CLR,,0.00,WeatherDisplay:10.37,2013-03-09 14:23:00,
2013-03-09 14:28:00,38.7,37.4,29.81,ENE,68,12.7,12.7,95,0.00,CLR,,0.00,WeatherDisplay:10.37,2013-03-09 14:28:00,
2013-03-09 14:33:00,38.7,37.4,29.81,ENE,77,19.6,19.6,95,0.00,CLR,,0.00,WeatherDisplay:10.37,2013-03-09 14:33:00,
2013-03-09 14:38:00,38.6,37.3,29.81,ENE,63,15.0,15.0,95,0.00,CLR,,0.00,WeatherDisplay:10.37,2013-03-09 14:38:00,
2013-03-09 14:43:00,38.6,37.3,29.82,NE,40,16.1,16.1,95,0.00,CLR,,0.00,WeatherDisplay:10.37,2013-03-09 14:43:00,
2013-03-09 14:48:00,38.6,37.3,29.82,NE,50,11.5,11.5,95,0.00,CLR,,0.00,WeatherDisplay:10.37,2013-03-09 14:48:00,
2013-03-09 14:53:00,38.6,37.3,29.82,ESE,102,17.3,17.3,95,0.00,CLR,,0.00,WeatherDisplay:10.37,2013-03-09 14:53:00,
2013-03-09 14:58:00,38.6,37.3,29.82,NE,39,15.0,15.0,95,0.00,CLR,,0.00,WeatherDisplay:10.37,2013-03-09 14:58:00,
2013-03-09 15:03:00,38.6,37.3,29.82,ESE,112,15.0,15.0,95,0.00,CLR,,0.00,WeatherDisplay:10.37,2013-03-09 15:03:00,
2013-03-09 15:08:00,38.6,37.3,29.82,East,96,20.7,20.7,95,0.00,CLR,,0.00,WeatherDisplay:10.37,2013-03-09 15:08:00,
2013-03-09 15:13:00,38.6,37.3,29.82,WSW,254,17.3,17.3,95,0.00,CLR,,0.00,WeatherDisplay:10.37,2013-03-09 15:13:00,
2013-03-09 15:18:00,38.6,37.3,29.82,ENE,61,17.3,17.3,95,0.00,CLR,,0.00,WeatherDisplay:10.37,2013-03-09 15:18:00,
2013-03-09 15:23:00,38.7,37.4,29.82,ENE,64,24.0,24.0,95,0.00,CLR,,0.00,WeatherDisplay:10.37,2013-03-09 15:23:00,
2013-03-09 15:28:00,38.7,37.1,29.82,NE,47,24.2,24.2,94,0.00,CLR,,0.00,WeatherDisplay:10.37,2013-03-09 15:28:00,
2013-03-09 15:33:00,38.7,37.1,29.82,ENE,71,23.0,23.0,94,0.00,CLR,,0.00,WeatherDisplay:10.37,2013-03-09 15:33:00,
2013-03-09 15:38:00,38.7,37.1,29.82,NNE,20,18.4,18.4,94,0.00,CLR,,0.00,WeatherDisplay:10.37,2013-03-09 15:38:00,
2013-03-09 15:43:00,38.7,37.1,29.82,NE,54,16.1,16.1,94,0.00,CLR,,0.00,WeatherDisplay:10.37,2013-03-09 15:43:00,
2013-03-09 15:48:00,38.7,37.1,29.82,NE,47,12.7,12.7,94,0.00,CLR,,0.00,WeatherDisplay:10.37,2013-03-09 15:48:00,
2013-03-09 15:53:00,38.7,37.1,29.83,ESE,123,12.7,12.7,94,0.00,CLR,,0.00,WeatherDisplay:10.37,2013-03-09 15:53:00,
2013-03-09 15:58:00,38.7,37.1,29.83,East,91,12.7,12.7,94,0.00,CLR,,0.00,WeatherDisplay:10.37,2013-03-09 15:58:00,
2013-03-09 16:03:00,38.7,37.1,29.83,NE,50,19.6,19.6,94,0.00,CLR,,0.00,WeatherDisplay:10.37,2013-03-09 16:03:00,
2013-03-09 16:09:00,38.6,37.0,29.83,East,93,15.0,15.0,94,0.00,CLR,,0.00,WeatherDisplay:10.37,2013-03-09 16:09:00,
2013-03-09 16:14:00,38.6,37.0,29.83,SSE,164,17.3,17.3,94,0.00,CLR,,0.00,WeatherDisplay:10.37,2013-03-09 16:14:00,
2013-03-09 16:19:00,38.6,37.0,29.83,ENE,77,20.7,20.7,94,0.00,CLR,,0.00,WeatherDisplay:10.37,2013-03-09 16:19:00,
2013-03-09 16:24:00,38.6,37.0,29.83,NE,37,15.0,15.0,94,0.00,CLR,,0.00,WeatherDisplay:10.37,2013-03-09 16:24:00,
2013-03-09 16:29:00,38.6,36.8,29.83,ENE,75,10.4,11.3,93,0.00,CLR,,0.00,WeatherDisplay:10.37,2013-03-09 16:29:00,
2013-03-09 16:34:00,38.6,36.5,29.84,ENE,64,12.7,12.7,92,0.00,CLR,,0.00,WeatherDisplay:10.37,2013-03-09 16:34:00,
2013-03-09 16:39:00,38.8,36.1,29.84,ESE,103,11.5,11.5,90,0.00,CLR,,0.00,WeatherDisplay:10.37,2013-03-09 16:39:00,
2013-03-09 16:44:00,39.1,35.6,29.84,East,91,13.8,13.8,87,0.00,CLR,,0.00,WeatherDisplay:10.37,2013-03-09 16:44:00,
2013-03-09 16:49:00,39.2,35.4,29.84,ESE,110,17.3,17.3,86,0.00,CLR,,0.00,WeatherDisplay:10.37,2013-03-09 16:49:00,
2013-03-09 16:54:00,39.3,34.9,29.84,ENE,67,12.7,12.7,84,0.00,CLR,,0.00,WeatherDisplay:10.37,2013-03-09 16:54:00,
2013-03-09 16:59:00,39.4,34.7,29.84,NE,54,12.7,12.7,83,0.00,CLR,,0.00,WeatherDisplay:10.37,2013-03-09 16:59:00,
2013-03-09 17:04:00,39.4,34.4,29.84,ENE,74,13.8,13.8,82,0.00,CLR,,0.00,WeatherDisplay:10.37,2013-03-09 17:04:00,
2013-03-09 17:09:00,39.5,34.5,29.85,East,85,18.4,18.4,82,0.00,CLR,,0.00,WeatherDisplay:10.37,2013-03-09 17:09:00,
2013-03-09 17:14:00,39.4,33.7,29.85,NE,55,18.4,18.4,80,0.00,CLR,,0.00,WeatherDisplay:10.37,2013-03-09 17:14:00,
2013-03-09 17:19:00,39.4,33.7,29.85,NE,43,16.1,16.1,80,0.00,CLR,,0.00,WeatherDisplay:10.37,2013-03-09 17:19:00,
2013-03-09 17:24:00,39.4,34.1,29.85,ESE,105,11.5,11.5,81,0.00,CLR,,0.00,WeatherDisplay:10.37,2013-03-09 17:24:00,
2013-03-09 17:29:00,39.3,33.6,29.85,ENE,71,11.5,11.5,80,0.00,CLR,,0.00,WeatherDisplay:10.37,2013-03-09 17:29:00,
2013-03-09 17:34:00,39.3,33.3,29.86,NE,55,14.0,14.0,79,0.00,CLR,,0.00,WeatherDisplay:10.37,2013-03-09 17:34:00,
2013-03-09 17:39:00,39.3,33.3,29.86,ENE,61,15.0,15.0,79,0.00,CLR,,0.00,WeatherDisplay:10.37,2013-03-09 17:39:00,
2013-03-09 17:44:00,39.2,33.2,29.86,ENE,65,19.6,19.6,79,0.00,CLR,,0.00,WeatherDisplay:10.37,2013-03-09 17:44:00,
2013-03-09 17:49:00,39.3,33.3,29.86,ESE,108,19.0,19.0,79,0.00,CLR,,0.00,WeatherDisplay:10.37,2013-03-09 17:49:00,
2013-03-09 17:54:00,39.2,32.9,29.86,ENE,68,9.2,9.2,78,0.00,CLR,,0.00,WeatherDisplay:10.37,2013-03-09 17:54:00,
2013-03-09 18:01:00,39.2,32.9,29.86,East,85,19.6,19.6,78,0.00,CLR,,0.00,WeatherDisplay:10.37,2013-03-09 18:01:00,
2013-03-09 18:06:00,39.2,32.9,29.86,East,81,15.0,15.0,78,0.00,CLR,,0.00,WeatherDisplay:10.37,2013-03-09 18:06:00,
2013-03-09 18:11:00,39.1,32.5,29.87,NE,56,13.8,13.8,77,0.00,CLR,,0.00,WeatherDisplay:10.37,2013-03-09 18:11:00,
2013-03-09 18:16:00,39.1,32.8,29.87,East,89,12.7,12.7,78,0.00,CLR,,0.00,WeatherDisplay:10.37,2013-03-09 18:16:00,
2013-03-09 18:21:00,39.0,32.4,29.87,ENE,68,19.6,19.6,77,0.00,CLR,,0.00,WeatherDisplay:10.37,2013-03-09 18:21:00,
2013-03-09 18:26:00,39.0,32.4,29.87,ENE,67,13.0,13.0,77,0.00,CLR,,0.00,WeatherDisplay:10.37,2013-03-09 18:26:00,
2013-03-09 18:31:00,38.9,32.3,29.87,ENE,77,15.0,15.0,77,0.00,CLR,,0.00,WeatherDisplay:10.37,2013-03-09 18:31:00,
2013-03-09 18:36:00,38.8,32.5,29.87,NNE,20,9.2,9.2,78,0.00,CLR,,0.00,WeatherDisplay:10.37,2013-03-09 18:36:00,
2013-03-09 18:41:00,38.8,32.5,29.88,ENE,60,19.6,19.6,78,0.00,CLR,,0.00,WeatherDisplay:10.37,2013-03-09 18:41:00,
2013-03-09 18:46:00,38.8,32.5,29.88,ENE,61,12.7,12.7,78,0.00,CLR,,0.00,WeatherDisplay:10.37,2013-03-09 18:46:00,
2013-03-09 18:51:00,38.8,32.5,29.88,ENE,64,9.2,9.2,78,0.00,CLR,,0.00,WeatherDisplay:10.37,2013-03-09 18:51:00,
2013-03-09 18:56:00,38.7,32.7,29.88,ENE,60,15.0,15.0,79,0.00,CLR,,0.00,WeatherDisplay:10.37,2013-03-09 18:56:00,
2013-03-09 19:01:00,38.7,32.7,29.88,ESE,115,11.5,11.5,79,0.00,CLR,,0.00,WeatherDisplay:10.37,2013-03-09 19:01:00,
2013-03-09 19:06:00,38.7,33.1,29.88,East,82,11.5,11.5,80,0.00,CLR,,0.00,WeatherDisplay:10.37,2013-03-09 19:06:00,
2013-03-09 19:11:00,38.6,32.6,29.89,ENE,61,15.0,15.0,79,0.00,CLR,,0.00,WeatherDisplay:10.37,2013-03-09 19:11:00,
2013-03-09 19:16:00,38.6,33.0,29.89,ENE,74,12.0,12.0,80,0.00,CLR,,0.00,WeatherDisplay:10.37,2013-03-09 19:16:00,
2013-03-09 19:21:00,38.6,33.0,29.89,ENE,60,12.0,12.0,80,0.00,CLR,,0.00,WeatherDisplay:10.37,2013-03-09 19:21:00,
2013-03-09 19:26:00,38.5,32.6,29.89,ESE,106,18.4,18.4,79,0.00,CLR,,0.00,WeatherDisplay:10.37,2013-03-09 19:26:00,
2013-03-09 19:31:00,38.4,32.5,29.89,NE,47,12.7,12.7,79,0.00,CLR,,0.00,WeatherDisplay:10.37,2013-03-09 19:31:00,
2013-03-09 19:36:00,38.4,32.5,29.89,ENE,64,16.1,16.1,79,0.00,CLR,,0.00,WeatherDisplay:10.37,2013-03-09 19:36:00,
2013-03-09 19:41:00,38.3,32.0,29.89,ENE,60,16.1,16.1,78,0.00,CLR,,0.00,WeatherDisplay:10.37,2013-03-09 19:41:00,
2013-03-09 19:46:00,38.3,32.4,29.89,NNE,12,20.7,20.7,79,0.00,CLR,,0.00,WeatherDisplay:10.37,2013-03-09 19:46:00,
2013-03-09 19:51:00,38.3,32.0,29.89,NE,51,16.1,16.1,78,0.00,CLR,,0.00,WeatherDisplay:10.37,2013-03-09 19:51:00,
2013-03-09 19:56:00,38.3,32.0,29.89,SSE,164,19.6,19.6,78,0.00,CLR,,0.00,WeatherDisplay:10.37,2013-03-09 19:56:00,
2013-03-09 20:01:00,38.3,32.0,29.89,East,81,15.0,15.0,78,0.00,CLR,,0.00,WeatherDisplay:10.37,2013-03-09 20:01:00,
2013-03-09 20:06:00,38.3,32.0,29.89,ENE,57,15.0,15.0,78,0.00,CLR,,0.00,WeatherDisplay:10.37,2013-03-09 20:06:00,
2013-03-09 20:11:00,38.2,31.6,29.89,ENE,71,23.0,23.0,77,0.00,CLR,,0.00,WeatherDisplay:10.37,2013-03-09 20:11:00,
2013-03-09 20:16:00,38.2,31.6,29.89,ESE,103,19.6,19.6,77,0.00,CLR,,0.00,WeatherDisplay:10.37,2013-03-09 20:16:00,
2013-03-09 20:21:00,38.1,31.8,29.89,NE,54,18.4,18.4,78,0.00,CLR,,0.00,WeatherDisplay:10.37,2013-03-09 20:21:00,
2013-03-09 20:26:00,38.1,31.5,29.89,NE,55,19.6,19.6,77,0.00,CLR,,0.00,WeatherDisplay:10.37,2013-03-09 20:26:00,
2013-03-09 20:31:00,38.0,31.4,29.89,ENE,64,24.2,24.2,77,0.00,CLR,,0.00,WeatherDisplay:10.37,2013-03-09 20:31:00,
2013-03-09 20:36:00,38.0,31.4,29.89,NE,51,16.1,16.1,77,0.00,CLR,,0.00,WeatherDisplay:10.37,2013-03-09 20:36:00,
2013-03-09 20:41:00,38.0,31.4,29.89,ESE,103,16.1,16.1,77,0.00,CLR,,0.00,WeatherDisplay:10.37,2013-03-09 20:41:00,
2013-03-09 20:46:00,37.9,31.0,29.89,NE,54,11.5,11.5,76,0.00,CLR,,0.00,WeatherDisplay:10.37,2013-03-09 20:46:00,
2013-03-09 20:52:00,37.8,31.2,29.89,NE,51,16.1,16.1,77,0.00,CLR,,0.00,WeatherDisplay:10.37,2013-03-09 20:52:00,
2013-03-09 20:57:00,37.9,31.0,29.90,North,1,18.4,18.4,76,0.00,CLR,,0.00,WeatherDisplay:10.37,2013-03-09 20:57:00,
2013-03-09 21:02:00,37.8,31.2,29.90,ENE,63,15.0,15.0,77,0.00,CLR,,0.00,WeatherDisplay:10.37,2013-03-09 21:02:00,
2013-03-09 21:07:00,37.8,30.9,29.90,ENE,63,18.4,18.4,76,0.00,CLR,,0.00,WeatherDisplay:10.37,2013-03-09 21:07:00,
2013-03-09 21:12:00,37.7,31.1,29.90,NE,53,18.4,18.4,77,0.00,CLR,,0.00,WeatherDisplay:10.37,2013-03-09 21:12:00,
2013-03-09 21:17:00,37.7,31.1,29.90,NE,55,16.0,16.0,77,0.00,CLR,,0.00,WeatherDisplay:10.37,2013-03-09 21:17:00,
2013-03-09 21:22:00,37.7,31.1,29.90,ENE,60,20.7,20.7,77,0.00,CLR,,0.00,WeatherDisplay:10.37,2013-03-09 21:22:00,
2013-03-09 21:27:00,37.7,31.1,29.90,East,87,19.6,19.6,77,0.00,CLR,,0.00,WeatherDisplay:10.37,2013-03-09 21:27:00,
2013-03-09 21:32:00,37.7,31.5,29.90,East,91,18.4,18.4,78,0.00,CLR,,0.00,WeatherDisplay:10.37,2013-03-09 21:32:00,
2013-03-09 21:37:00,37.7,31.5,29.90,ENE,63,19.6,19.6,78,0.00,CLR,,0.00,WeatherDisplay:10.37,2013-03-09 21:37:00,
2013-03-09 21:42:00,37.6,31.4,29.90,NE,47,19.6,19.6,78,0.00,CLR,,0.00,WeatherDisplay:10.37,2013-03-09 21:42:00,
2013-03-09 21:47:00,37.6,31.4,29.90,North,10,26.5,26.5,78,0.00,CLR,,0.00,WeatherDisplay:10.37,2013-03-09 21:47:00,
2013-03-09 21:52:00,37.6,31.7,29.90,ENE,75,18.4,18.4,79,0.00,CLR,,0.00,WeatherDisplay:10.37,2013-03-09 21:52:00,
2013-03-09 21:57:00,37.5,31.3,29.90,NE,40,19.6,19.6,78,0.00,CLR,,0.00,WeatherDisplay:10.37,2013-03-09 21:57:00,
2013-03-09 22:02:00,37.5,31.6,29.90,ENE,77,21.9,21.9,79,0.00,CLR,,0.00,WeatherDisplay:10.37,2013-03-09 22:02:00,
2013-03-09 22:08:00,37.4,31.2,29.90,East,82,19.6,19.6,78,0.00,CLR,,0.00,WeatherDisplay:10.37,2013-03-09 22:08:00,
2013-03-09 22:13:00,37.3,31.1,29.90,NE,53,19.6,19.6,78,0.00,CLR,,0.00,WeatherDisplay:10.37,2013-03-09 22:13:00,
2013-03-09 22:18:00,37.4,31.2,29.91,ENE,74,18.4,18.4,78,0.00,CLR,,0.00,WeatherDisplay:10.37,2013-03-09 22:18:00,
2013-03-09 22:24:00,37.3,30.7,29.90,NE,54,16.1,16.1,77,0.00,CLR,,0.00,WeatherDisplay:10.37,2013-03-09 22:24:00,
2013-03-09 22:29:00,37.3,30.7,29.91,ENE,68,17.3,17.3,77,0.00,CLR,,0.00,WeatherDisplay:10.37,2013-03-09 22:29:00,
2013-03-09 22:34:00,37.3,30.7,29.91,ENE,63,15.0,15.0,77,0.00,CLR,,0.00,WeatherDisplay:10.37,2013-03-09 22:34:00,
2013-03-09 22:39:00,37.2,30.7,29.91,NE,54,15.0,15.0,77,0.00,CLR,,0.00,WeatherDisplay:10.37,2013-03-09 22:39:00,
2013-03-09 22:44:00,37.2,30.3,29.91,NE,54,19.6,19.6,76,0.00,CLR,,0.00,WeatherDisplay:10.37,2013-03-09 22:44:00,
2013-03-09 22:49:00,37.1,30.6,29.90,NE,55,19.0,19.0,77,0.00,CLR,,0.00,WeatherDisplay:10.37,2013-03-09 22:49:00,
2013-03-09 22:54:00,37.2,30.3,29.91,ESE,112,19.6,19.6,76,0.00,CLR,,0.00,WeatherDisplay:10.37,2013-03-09 22:54:00,
2013-03-09 22:59:00,37.1,30.6,29.91,East,86,17.3,17.3,77,0.00,CLR,,0.00,WeatherDisplay:10.37,2013-03-09 22:59:00,
2013-03-09 23:04:00,37.2,30.7,29.91,East,91,19.6,19.6,77,0.00,CLR,,0.00,WeatherDisplay:10.37,2013-03-09 23:04:00,
2013-03-09 23:09:00,37.1,30.6,29.91,NE,54,13.8,13.8,77,0.00,CLR,,0.00,WeatherDisplay:10.37,2013-03-09 23:09:00,
2013-03-09 23:14:00,37.1,30.6,29.91,ENE,74,12.0,12.0,77,0.00,CLR,,0.00,WeatherDisplay:10.37,2013-03-09 23:14:00,
2013-03-09 23:19:00,37.1,30.6,29.91,ENE,70,13.0,13.0,77,0.00,CLR,,0.00,WeatherDisplay:10.37,2013-03-09 23:19:00,
2013-03-09 23:24:00,37.1,30.2,29.91,NE,44,19.6,19.6,76,0.00,CLR,,0.00,WeatherDisplay:10.37,2013-03-09 23:24:00,
2013-03-09 23:29:00,37.1,30.2,29.91,East,91,19.6,19.6,76,0.00,CLR,,0.00,WeatherDisplay:10.37,2013-03-09 23:29:00,
2013-03-09 23:34:00,37.1,30.2,29.92,East,93,16.1,16.1,76,0.00,CLR,,0.00,WeatherDisplay:10.37,2013-03-09 23:34:00,
2013-03-09 23:39:00,37.0,29.8,29.92,East,85,14.0,14.0,75,0.00,CLR,,0.00,WeatherDisplay:10.37,2013-03-09 23:39:00,
2013-03-09 23:44:00,37.0,29.8,29.92,ENE,64,12.7,12.7,75,0.00,CLR,,0.00,WeatherDisplay:10.37,2013-03-09 23:44:00,
2013-03-09 23:49:00,37.0,29.8,29.92,ENE,77,8.1,8.1,75,0.00,CLR,,0.00,WeatherDisplay:10.37,2013-03-09 23:49:00,
2013-03-09 23:54:00,37.1,29.9,29.92,NE,46,13.8,13.8,75,0.00,CLR,,0.00,WeatherDisplay:10.37,2013-03-09 23:54:00,
2013-03-09 23:59:00,37.0,29.5,29.92,North,354,13.8,13.8,74,0.00,CLR,,0.00,WeatherDisplay:10.37,2013-03-09 23:59:00,